Index of /20260411/WXO-DD/model_gdps/15km/12/058
Name Last modified Size Description
Parent Directory -
20260411T12Z_MSC_GDPS_AirTemp_AGL-120m_LatLon0.15_PT058H.grib2 2026-04-11 16:13 914K
20260411T12Z_MSC_GDPS_AirTemp_AGL-2m_LatLon0.15_PT058H.grib2 2026-04-11 16:13 1.0M
20260411T12Z_MSC_GDPS_AirTemp_AGL-40m_LatLon0.15_PT058H.grib2 2026-04-11 16:13 940K
20260411T12Z_MSC_GDPS_AirTemp_AGL-80m_LatLon0.15_PT058H.grib2 2026-04-11 16:13 927K
20260411T12Z_MSC_GDPS_Albedo_Sfc_LatLon0.15_PT058H.grib2 2026-04-11 16:13 244K
20260411T12Z_MSC_GDPS_ConvectivePrecip-Accum_Sfc_LatLon0.15_PT058H.grib2 2026-04-11 16:13 2.7M
20260411T12Z_MSC_GDPS_DewPointDepression_AGL-2m_LatLon0.15_PT058H.grib2 2026-04-11 16:13 750K
20260411T12Z_MSC_GDPS_DewPoint_AGL-2m_LatLon0.15_PT058H.grib2 2026-04-11 16:13 609K
20260411T12Z_MSC_GDPS_DownwardLongwaveRadiationFlux-Accum_Sfc_LatLon0.15_PT058H.grib2 2026-04-11 16:13 855K
20260411T12Z_MSC_GDPS_DownwardShortwaveRadiationFlux-Accum_Sfc_LatLon0.15_PT058H.grib2 2026-04-11 16:13 1.1M
20260411T12Z_MSC_GDPS_FreezingRain-Accum1h_Sfc_LatLon0.15_PT058H.grib2 2026-04-11 16:13 12K
20260411T12Z_MSC_GDPS_FreezingRain-Accum_Sfc_LatLon0.15_PT058H.grib2 2026-04-11 16:13 184K
20260411T12Z_MSC_GDPS_IcePellets-Accum1h_Sfc_LatLon0.15_PT058H.grib2 2026-04-11 16:13 4.7K
20260411T12Z_MSC_GDPS_IcePellets-Accum_Sfc_LatLon0.15_PT058H.grib2 2026-04-11 16:13 76K
20260411T12Z_MSC_GDPS_LatentHeatNetFlux_Sfc_LatLon0.15_PT058H.grib2 2026-04-11 16:13 635K
20260411T12Z_MSC_GDPS_NetLongwaveRadiationFlux-Accum_Sfc_LatLon0.15_PT058H.grib2 2026-04-11 16:13 1.2M
20260411T12Z_MSC_GDPS_NetShortwaveRadiationFlux-Accum_Sfc_LatLon0.15_PT058H.grib2 2026-04-11 16:13 1.1M
20260411T12Z_MSC_GDPS_O3MixingRatio_LatLon0.15_PT058H.grib2 2026-04-11 17:05 2.0M
20260411T12Z_MSC_GDPS_O3_EAtm_LatLon0.15_PT058H.grib2 2026-04-11 17:05 2.1M
20260411T12Z_MSC_GDPS_PlanetaryBoundaryLayerHeight_Sfc_LatLon0.15_PT058H.grib2 2026-04-11 16:13 2.4M
20260411T12Z_MSC_GDPS_Precip-Accum1h_Sfc_LatLon0.15_PT058H.grib2 2026-04-11 16:13 3.1M
20260411T12Z_MSC_GDPS_Precip-Accum_Sfc_LatLon0.15_PT058H.grib2 2026-04-11 16:13 4.6M
20260411T12Z_MSC_GDPS_PrecipRate_Sfc_LatLon0.15_PT058H.grib2 2026-04-11 16:13 2.9M
20260411T12Z_MSC_GDPS_Pressure_MSL_LatLon0.15_PT058H.grib2 2026-04-11 16:13 819K
20260411T12Z_MSC_GDPS_Pressure_Sfc_LatLon0.15_PT058H.grib2 2026-04-11 16:13 1.1M
20260411T12Z_MSC_GDPS_RadiativeTemp_Sfc_LatLon0.15_PT058H.grib2 2026-04-11 16:13 663K
20260411T12Z_MSC_GDPS_Rain-Accum1h_Sfc_LatLon0.15_PT058H.grib2 2026-04-11 16:13 1.4M
20260411T12Z_MSC_GDPS_Rain-Accum_Sfc_LatLon0.15_PT058H.grib2 2026-04-11 16:13 3.4M
20260411T12Z_MSC_GDPS_RelativeHumidity_AGL-2m_LatLon0.15_PT058H.grib2 2026-04-11 16:13 1.0M
20260411T12Z_MSC_GDPS_Runoff-Accum_Sfc_LatLon0.15_PT058H.grib2 2026-04-11 16:13 110K
20260411T12Z_MSC_GDPS_SensibleHeatNetFlux_Sfc_LatLon0.15_PT058H.grib2 2026-04-11 16:13 592K
20260411T12Z_MSC_GDPS_Snow-Accum1h_Sfc_LatLon0.15_PT058H.grib2 2026-04-11 16:13 793K
20260411T12Z_MSC_GDPS_Snow-Accum_Sfc_LatLon0.15_PT058H.grib2 2026-04-11 16:13 1.9M
20260411T12Z_MSC_GDPS_SnowDepth_Sfc_LatLon0.15_PT058H.grib2 2026-04-11 16:13 1.8M
20260411T12Z_MSC_GDPS_SoilTemp_DBS-0to10cm_LatLon0.15_PT058H.grib2 2026-04-11 16:13 505K
20260411T12Z_MSC_GDPS_SoilTemp_Sfc_LatLon0.15_PT058H.grib2 2026-04-11 16:13 576K
20260411T12Z_MSC_GDPS_SoilVolumetricWaterContent_DBS-0to10cm_LatLon0.15_PT058H.grib2 2026-04-11 16:13 551K
20260411T12Z_MSC_GDPS_SoilVolumetricWaterContent_DBS-0to1cm_LatLon0.15_PT058H.grib2 2026-04-11 16:13 652K
20260411T12Z_MSC_GDPS_SpecificHumidity_AGL-120m_LatLon0.15_PT058H.grib2 2026-04-11 16:13 1.1M
20260411T12Z_MSC_GDPS_SpecificHumidity_AGL-2m_LatLon0.15_PT058H.grib2 2026-04-11 16:13 1.2M
20260411T12Z_MSC_GDPS_SpecificHumidity_AGL-40m_LatLon0.15_PT058H.grib2 2026-04-11 16:13 1.1M
20260411T12Z_MSC_GDPS_SpecificHumidity_AGL-80m_LatLon0.15_PT058H.grib2 2026-04-11 16:13 1.1M
20260411T12Z_MSC_GDPS_SpecificHumidity_Sfc_LatLon0.15_PT058H.grib2 2026-04-11 16:13 619K
20260411T12Z_MSC_GDPS_TotalCloudCover_Sfc_LatLon0.15_PT058H.grib2 2026-04-11 16:13 823K
20260411T12Z_MSC_GDPS_UVIndex-ClearSky_Sfc_LatLon0.15_PT058H.grib2 2026-04-11 17:05 1.0M
20260411T12Z_MSC_GDPS_UVIndex_Sfc_LatLon0.15_PT058H.grib2 2026-04-11 17:05 1.5M
20260411T12Z_MSC_GDPS_UpwardLongwaveRadiationFlux_NTAtm_LatLon0.15_PT058H.grib2 2026-04-11 16:13 1.0M
20260411T12Z_MSC_GDPS_WindDir_AGL-10m_LatLon0.15_PT058H.grib2 2026-04-11 16:13 1.3M
20260411T12Z_MSC_GDPS_WindDir_AGL-120m_LatLon0.15_PT058H.grib2 2026-04-11 16:13 1.3M
20260411T12Z_MSC_GDPS_WindDir_AGL-40m_LatLon0.15_PT058H.grib2 2026-04-11 16:13 1.4M
20260411T12Z_MSC_GDPS_WindDir_AGL-80m_LatLon0.15_PT058H.grib2 2026-04-11 16:13 1.4M
20260411T12Z_MSC_GDPS_WindDir_IsbL-0700_LatLon0.15_PT058H.grib2 2026-04-11 16:13 1.6M
20260411T12Z_MSC_GDPS_WindGust-Max_AGL-10m_LatLon0.15_PT058H.grib2 2026-04-11 16:13 2.2M
20260411T12Z_MSC_GDPS_WindGust-Min_AGL-10m_LatLon0.15_PT058H.grib2 2026-04-11 16:13 2.2M
20260411T12Z_MSC_GDPS_WindGust_AGL-10m_LatLon0.15_PT058H.grib2 2026-04-11 16:13 2.2M
20260411T12Z_MSC_GDPS_WindSpeed_AGL-10m_LatLon0.15_PT058H.grib2 2026-04-11 16:13 1.1M
20260411T12Z_MSC_GDPS_WindSpeed_AGL-120m_LatLon0.15_PT058H.grib2 2026-04-11 16:13 1.3M
20260411T12Z_MSC_GDPS_WindSpeed_AGL-40m_LatLon0.15_PT058H.grib2 2026-04-11 16:13 1.2M
20260411T12Z_MSC_GDPS_WindSpeed_AGL-80m_LatLon0.15_PT058H.grib2 2026-04-11 16:13 1.3M
20260411T12Z_MSC_GDPS_WindSpeed_IsbL-0700_LatLon0.15_PT058H.grib2 2026-04-11 16:13 1.5M
20260411T12Z_MSC_GDPS_WindU_AGL-10m_LatLon0.15_PT058H.grib2 2026-04-11 16:13 1.3M
20260411T12Z_MSC_GDPS_WindU_AGL-120m_LatLon0.15_PT058H.grib2 2026-04-11 16:13 1.0M
20260411T12Z_MSC_GDPS_WindU_AGL-40m_LatLon0.15_PT058H.grib2 2026-04-11 16:13 1.0M
20260411T12Z_MSC_GDPS_WindU_AGL-80m_LatLon0.15_PT058H.grib2 2026-04-11 16:13 1.0M
20260411T12Z_MSC_GDPS_WindU_IsbL-0700_LatLon0.15_PT058H.grib2 2026-04-11 16:13 1.2M
20260411T12Z_MSC_GDPS_WindV_AGL-10m_LatLon0.15_PT058H.grib2 2026-04-11 16:13 1.3M
20260411T12Z_MSC_GDPS_WindV_AGL-120m_LatLon0.15_PT058H.grib2 2026-04-11 16:13 1.0M
20260411T12Z_MSC_GDPS_WindV_AGL-40m_LatLon0.15_PT058H.grib2 2026-04-11 16:13 972K
20260411T12Z_MSC_GDPS_WindV_AGL-80m_LatLon0.15_PT058H.grib2 2026-04-11 16:13 1.0M
20260411T12Z_MSC_GDPS_WindV_IsbL-0700_LatLon0.15_PT058H.grib2 2026-04-11 16:13 1.2M